FENGYUN 1C DEB, 30732

Orbit data source: Space-Track

FENGYUN 1C DEB, 30732 is space debris in SSO originally from a launch on Mon, 10 May 1999 UTC launched from the Taiyaun Space Center, China (TSC). Fengyun 1C debris stems from the Chinese weather satellite Fengyun-1C, which was intentionally destroyed by a Chinese anti-satellite missile in 2007. This event dramatically increased the amount of space debris, with thousands of trackable fragments posing hazards to satellites and human spaceflight. The Fengyun 1C debris cloud has become a focal point in discussions about space sustainability and the need for international regulations to prevent the creation of new debris.

Loading next visibility...
Identifier
30732, 1999-025ASS
Orbit
SSO
Country
Flag of CNCN / PRC
Related business
Manufacturer
Unknown
Mission
Spacecraft
Bus & Motor
Unknown
Mass
Unknown
Launch date (UTC)
1999-05-10 (26 years ago)
Launch vehicle
Unknown
Launch site
Taiyaun Space Center, China (TSC)
Object type
Payload
Rocket body
Debris
Shape & HBR
Unknown shape, 0.1 m
Radar Cross Section
Small (<0.1 m²)

Expand to show TLE details & history
Last TLE update: 8 hours ago

TLE from 8 hours ago
0 FENGYUN 1C DEB
1 30732U 99025ASS 25299.54216469  .00000654  00000-0  41343-3 0  9997
2 30732  98.8091 321.1122 0123669 341.8726 170.5543 14.03814580955291
Epoch: 2025-10-26T13:00Z
TLE epoch observation values (Epoch: 2025-10-26T13:00:43.029Z)
Latitude
27.0328°
Longitude
-84.71222°
Altitude
972.49 km
Speed
7.323 km/s
True Right ascension
09h 42m 29s
True Declination
26° 53' 52"
Sunlit
Object was in daylight at epoch
Visualization orbit readout
Latitude
Unknown
Longitude
Unknown
Altitude
Unknown
Speed
Unknown
Apparent Right ascension
Unknown
Apparent Declination
Unknown
Sunlit
N/A
Visualization observer readout
Local Sidereal Time
16:26:29
Azimuth
Unknown
Elevation
Unknown
Doppler factor
Unknown
Orbital elements
Apogee altitude
967.534 km
Perigee altitude
788.067 km
Semi-major axis
7,255.937 km
Eccentricity
0.01237
Inclination
98.8091°
RAAN
321.1122°
Arg. of periapsis
341.8726°
True anomaly
170.78338°
Mean anomaly
170.5543°
Eccentric anomaly
170.66918°
Mean motion
3.51158 °/min
Orbital period
102.52 mins
BSTAR
0.00041343
Loading maneuver chart data...
Computing Atmospheric mass density...

Documentation

Showing up to 5 results
|